[[{"header":{"parameterUnit":"m.s-1","parameterCategory":1,"la1":30.2992,"la2":30.254,"lo1":-89.0895,"lo2":-89.0443,"dy":0.0025,"dx":0.0025,"nx":19,"ny":19,"refTime":"2026-03-30T03:00:00:Z","depth":0,"parameterNumber":2,"parameterNumberName":"U-component_of_WINDS"},"data":[0,0,0,-7.1177,-7.1179,-7.1261,-7.1261,-7.1411,-7.1413,0,0,0,0,0,0,0,0,0,0,0,-7.1182,-7.1184,-7.1177,-7.118,-7.1261,-7.1261,-7.1411,-7.1413,0,0,0,0,0,0,0,0,0,0,0,-7.1181,-7.1184,-7.1186,-7.118,-7.1261,-7.1261,-7.141,-7.1332,0,0,0,0,0,0,0,0,0,0,-7.1245,-7.1279,-7.1183,-7.1186,-7.1181,-7.1261,-7.1261,-7.1328,-7.1337,-7.1395,0,-7.1454,0,-7.1436,-7.1426,-7.1427,0,0,0,-7.1158,-7.1271,-7.1267,-7.1187,-7.1182,-7.1261,-7.1218,-7.1332,-7.1343,-7.1408,-7.1456,-7.146,-7.1439,-7.1427,-7.1428,-7.1835,-7.1838,0,0,-7.1153,-7.1212,-7.126,-7.1275,-7.1267,-7.1215,-7.1221,-7.1338,-7.1395,-7.1456,-7.1463,-7.1441,-7.1429,-7.143,-7.1832,-7.1836,0,0,0,-7.1155,-7.121,-7.1201,-7.1271,-7.1282,-7.1218,-7.1224,-7.1389,-7.1382,-7.1464,-7.1443,-7.143,-7.1432,-7.1829,-7.1833,-7.2035,0,0,0,-7.1151,-7.1211,-7.1201,-7.1238,-7.1281,-7.1337,-7.1274,-7.1374,-7.1385,-7.1442,-7.143,-7.1434,-7.1825,-7.1831,-7.2022,-7.212,0,0,0,-7.1167,-7.1212,-7.1234,-7.1241,-7.1278,-7.1333,-7.1332,-7.1375,-7.1374,-7.1427,-7.1435,-7.1823,-7.183,-7.2011,-7.2102,-7.2244,0,0,0,-7.12,-7.1412,-7.1239,-7.1467,-7.1278,-7.1459,-7.133,-7.1462,-7.1532,-7.1431,-7.1826,-7.1833,-7.2008,-7.209,-7.2233,-7.2374,-7.2439,0,0,-7.1501,-7.1451,-7.1581,-7.1427,-7.1654,-7.1441,-7.1697,-7.1705,-7.1656,-7.1778,-7.1787,-7.2027,-7.21,-7.2242,-7.2783,-7.2835,0,0,0,-7.1696,-7.179,-7.1837,-7.1907,-7.1919,-7.1937,-7.19,-7.1903,-7.2003,-7.1731,-7.2115,-7.2157,-7.2238,-7.2302,-7.2347,-7.2411,-7.1866,-7.1865,-7.1864,-7.2205,-7.2132,-7.2342,-7.2279,-7.2348,-7.2308,-7.2357,-7.2354,-7.2259,-7.2351,-7.2386,-7.2724,-7.2803,-7.2835,-7.2904,-7.2456,-7.2457,-7.2458,-7.2458,-7.2638,-7.2759,-7.2629,-7.2786,-7.2707,-7.2838,-7.2808,-7.2736,-7.2846,-7.2691,-7.2758,-7.2595,-7.2895,-7.295,-7.2473,-7.247,-7.2468,-7.2467,-7.2466,-7.2962,-7.3007,-7.3008,-7.3102,-7.3182,-7.3111,-7.3223,-7.3146,-7.3075,-7.3142,-7.3171,-7.3167,-7.3153,-7.3161,-7.3163,-7.3164,-7.3165,-7.3166,-7.3166,-7.3298,-7.3292,-7.3396,-7.3428,-7.3462,-7.3499,-7.3462,-7.3494,-7.351,-7.3445,-7.3445,-7.3341,-7.2938,-7.2838,-7.3184,-7.3181,-7.3179,-7.3177,-7.3176,-7.3762,-7.3645,-7.3806,-7.3841,-7.3871,-7.3957,-7.3859,-7.3931,-7.3946,-7.4004,-7.3886,-7.3601,-7.3544,-7.3508,-7.3424,-7.3902,-7.3902,-7.3902,-7.3902,-7.4035,-7.3999,-7.4146,-7.4207,-7.4259,-7.4187,-7.4371,-7.4344,-7.4298,-7.4303,-7.4223,-7.4106,-7.4074,-7.4036,-7.3989,-7.3909,-7.4499,-7.45,-7.45,-7.4316,-7.4282,-7.4452,-7.4406,-7.4425,-7.4443,-7.4612,-7.4688,-7.4611,-7.4523,-7.4305,-7.428,-7.409,-7.4033,-7.3938,-7.3867,-7.3719,0,0]},{"header":{"parameterUnit":"m.s-1","parameterCategory":1,"la1":30.2992,"la2":30.254,"lo1":-89.0895,"lo2":-89.0443,"dy":0.0025,"dx":0.0025,"nx":19,"ny":19,"refTime":"2026-03-30T03:00:00:Z","depth":0,"parameterNumber":3,"parameterNumberName":"V-component_of_WINDS"},"data":[0,0,0,0.663,0.663,0.6629,0.6629,0.6615,0.6615,0,0,0,0,0,0,0,0,0,0,0,0.6624,0.6623,0.6631,0.663,0.6629,0.6629,0.6615,0.6615,0,0,0,0,0,0,0,0,0,0,0,0.6624,0.6623,0.6623,0.663,0.6629,0.6629,0.6615,0.662,0,0,0,0,0,0,0,0,0,0,0.6623,0.661,0.6624,0.6623,0.663,0.6629,0.6629,0.6621,0.662,0.661,0,0.66,0,0.6607,0.6613,0.6613,0,0,0,0.6635,0.6611,0.6617,0.6623,0.663,0.6629,0.6631,0.662,0.6619,0.6609,0.66,0.66,0.6607,0.6613,0.6613,0.6543,0.6543,0,0,0.6635,0.6619,0.6618,0.6616,0.6617,0.6631,0.6631,0.662,0.6609,0.66,0.66,0.6607,0.6613,0.6612,0.6544,0.6543,0,0,0,0.6632,0.6619,0.6626,0.6617,0.6617,0.6631,0.6631,0.6609,0.6613,0.66,0.6607,0.6612,0.6612,0.6545,0.6544,0.6501,0,0,0,0.6632,0.6617,0.6626,0.6616,0.6617,0.6613,0.662,0.6614,0.6613,0.6607,0.6612,0.6612,0.6545,0.6544,0.6504,0.6483,0,0,0,0.6626,0.6617,0.6614,0.6615,0.6614,0.6614,0.6617,0.6614,0.6617,0.6613,0.6612,0.6546,0.6544,0.6506,0.6486,0.646,0,0,0,0.6614,0.6575,0.6613,0.6572,0.6614,0.6588,0.6618,0.6599,0.659,0.6612,0.6545,0.6544,0.6507,0.6489,0.6462,0.6433,0.6421,0,0,0.6555,0.6567,0.6544,0.6579,0.6542,0.659,0.6547,0.6553,0.6567,0.655,0.6549,0.6503,0.6487,0.646,0.6356,0.6345,0,0,0,0.652,0.6503,0.6497,0.6489,0.6495,0.6498,0.6513,0.6516,0.6503,0.6556,0.6487,0.6478,0.6463,0.645,0.6441,0.6429,0.6538,0.6538,0.6538,0.6411,0.6434,0.6397,0.6419,0.6412,0.6429,0.6425,0.6431,0.6454,0.6438,0.6432,0.6366,0.635,0.6344,0.6331,0.642,0.642,0.642,0.642,0.6326,0.6306,0.634,0.6317,0.6341,0.6321,0.6338,0.6355,0.634,0.6372,0.636,0.6391,0.6332,0.6322,0.6417,0.6417,0.6417,0.6418,0.6418,0.6256,0.6251,0.6257,0.6249,0.6241,0.6265,0.625,0.6271,0.6291,0.628,0.6276,0.6277,0.6279,0.6277,0.6277,0.6277,0.6276,0.6276,0.6276,0.6181,0.6189,0.6174,0.6179,0.6178,0.6179,0.6199,0.6198,0.6202,0.6219,0.6219,0.6243,0.6323,0.6342,0.6273,0.6273,0.6274,0.6274,0.6274,0.6083,0.611,0.6086,0.6085,0.6094,0.6085,0.6114,0.6111,0.6114,0.6105,0.6134,0.6189,0.6202,0.6209,0.6225,0.613,0.613,0.613,0.613,0.6023,0.6033,0.6015,0.6013,0.6013,0.6038,0.6011,0.6026,0.6046,0.6049,0.6067,0.609,0.6096,0.6105,0.6115,0.6129,0.6012,0.6012,0.6012,0.5964,0.5976,0.5948,0.597,0.5979,0.5986,0.5961,0.5956,0.5985,0.6008,0.6052,0.6057,0.6095,0.6106,0.6127,0.6141,0.6169,0,0]}]]